Newark, NJ

8:31 PM EDT on October 22, 2019 (GMT -0400)
Newark International

Weather History for KEWR - May, 2019

Change the Weather History Date:

Wednesday, May 29, 2019

  Actual Average Record
Temperature  
Mean Temperature 66 °F 67 °F  
Max Temperature 75 °F 76 °F 97 °F (1987)
Min Temperature 57 °F 58 °F 40 °F (1936)
Degree Days  
Heating Degree Days 0 2  
Month to date heating degree days 105 132  
Since 1 July heating degree days 4699 4852  
Cooling Degree Days 1 4  
Month to date cooling degree days 62 56  
Year to date cooling degree days 77 68  
Growing Degree Days 16 (Base 50)    
Moisture  
Dew Point 59 °F    
Average Humidity 83    
Maximum Humidity 93    
Minimum Humidity 68    
Precipitation  
Precipitation 0.58 in 0.14 in 3.60 in (1968)
Month to date precipitation 6.79 3.80  
Year to date precipitation 22.44 18.60  
Snow  
Snow 0.00 in 0.00 in T in (1995)
Month to date snowfall 0.0 0.0  
Since 1 July snowfall 22.0 28.5  
Snow Depth 0.00 in    
Sea Level Pressure  
Sea Level Pressure 29.73 in    
Wind  
Wind Speed 7 mph ()    
Max Wind Speed 16 mph    
Max Gust Speed 19 mph    
Visibility 8.9 miles    
Events Rain , Thunderstorm    
T = Trace of Precipitation, MM = Missing Value Source: Averaged Metar Reports

Daily Weather History Graph

Daily Weather History Graph

Search for Another Location

Airport or City:

Astronomy

May. 29, 2019 Rise Set
Actual Time 5:29 AM EDT 8:19 PM EDT
Civil Twilight 4:57 AM EDT 8:51 PM EDT
Nautical Twilight 4:16 AM EDT 9:32 PM EDT
Astronomical Twilight 3:29 AM EDT 10:19 PM EDT
Moon 3:09 AM EDT (5/29) 3:22 PM EDT (5/29)
Length of Visible Light 15h 54m
Length of Day
14h 49m
Waning Crescent, 23% of the Moon is Illuminated
May 29
Waning Crescent
Jun 3
New
Jun 10
First Quarter
Jun 17
Full
Jun 25
Last Quarter

Hourly Weather History & Observations

Time (EDT) Temp. Dew Point Humidity Pressure Visibility Wind Dir Wind Speed Gust Speed Precip Events Conditions
12:51 AM 71.1 °F 68.0 °F 90% 29.69 in 10.0 mi SW 9.2 mph - N/A   Overcast
1:51 AM 71.1 °F 66.0 °F 84% 29.67 in 10.0 mi WSW 10.4 mph - 0.00 in Rain Light Rain
2:51 AM 71.1 °F 66.0 °F 84% 29.65 in 10.0 mi West 12.7 mph - 0.00 in   Overcast
3:51 AM 70.0 °F 64.0 °F 81% 29.64 in 10.0 mi WNW 3.5 mph - N/A   Mostly Cloudy
4:51 AM 69.1 °F 64.0 °F 84% 29.67 in 10.0 mi SSW 6.9 mph - N/A   Mostly Cloudy
5:51 AM 70.0 °F 64.0 °F 81% 29.69 in 10.0 mi WSW 3.5 mph - N/A   Mostly Cloudy
6:51 AM 72.0 °F 64.0 °F 76% 29.70 in 10.0 mi NW 4.6 mph - N/A   Mostly Cloudy
7:51 AM 73.9 °F 64.9 °F 73% 29.73 in 10.0 mi NNW 5.8 mph - 0.00 in   Mostly Cloudy
8:23 AM 69.1 °F 62.1 °F 78% 29.74 in 10.0 mi NNE 15.0 mph - N/A   Scattered Clouds
8:38 AM 66.9 °F 62.1 °F 84% 29.75 in 9.0 mi NE 10.4 mph - N/A   Mostly Cloudy
8:51 AM 66.0 °F 61.0 °F 84% 29.76 in 9.0 mi NE 10.4 mph - N/A   Mostly Cloudy
9:23 AM 66.0 °F 60.1 °F 81% 29.76 in 9.0 mi NE 10.4 mph - N/A   Overcast
9:51 AM 64.0 °F 57.9 °F 80% 29.75 in 9.0 mi ESE 10.4 mph - N/A   Overcast
10:51 AM 64.9 °F 57.9 °F 78% 29.75 in 10.0 mi East 6.9 mph - N/A   Overcast
11:47 AM 66.2 °F 59.0 °F 78% 29.76 in 10.0 mi SE 6.9 mph - N/A   Overcast
11:51 AM 66.0 °F 59.0 °F 78% 29.76 in 10.0 mi SE 8.1 mph - N/A   Overcast
12:51 PM 66.9 °F 57.9 °F 73% 29.76 in 10.0 mi Variable 5.8 mph - N/A   Overcast
1:51 PM 66.9 °F 57.0 °F 70% 29.75 in 10.0 mi SE 9.2 mph - N/A   Overcast
2:51 PM 66.9 °F 55.9 °F 68% 29.72 in 10.0 mi SE 13.8 mph - N/A   Overcast
3:51 PM 64.0 °F 55.9 °F 75% 29.70 in 10.0 mi SE 11.5 mph 18.4 mph N/A   Overcast
4:51 PM 62.1 °F 55.0 °F 78% 29.69 in 10.0 mi ESE 11.5 mph - N/A   Overcast
5:34 PM 61.0 °F 55.0 °F 81% 29.76 in 9.0 mi East 4.6 mph - 0.00 in Rain , Thunderstorm Light Thunderstorms and Rain
5:44 PM 60.1 °F 55.0 °F 83% 29.74 in 5.0 mi ENE 6.9 mph - 0.01 in Rain , Thunderstorm Thunderstorms and Rain
5:51 PM 60.1 °F 55.9 °F 86% 29.73 in 6.0 mi ESE 5.8 mph - 0.02 in Rain , Thunderstorm Light Thunderstorms and Rain
6:32 PM 57.9 °F 55.9 °F 93% 29.77 in 3.0 mi South 8.1 mph - 0.35 in Rain , Thunderstorm Thunderstorms and Rain
6:51 PM 59.0 °F 57.0 °F 93% 29.75 in 3.0 mi Calm Calm - 0.42 in Rain , Thunderstorm Thunderstorms and Rain
7:09 PM 59.0 °F 55.9 °F 90% 29.74 in 7.0 mi ESE 9.2 mph - 0.05 in Rain , Thunderstorm Thunderstorms and Rain
7:26 PM 57.9 °F 55.9 °F 93% 29.72 in 6.0 mi ESE 11.5 mph - 0.09 in Rain Rain
7:51 PM 57.9 °F 55.9 °F 93% 29.70 in 9.0 mi East 8.1 mph - 0.14 in Rain Light Rain
8:06 PM 57.9 °F 55.0 °F 90% 29.72 in 10.0 mi Variable 6.9 mph 17.3 mph 0.00 in   Overcast
8:36 PM 59.0 °F 55.9 °F 90% 29.75 in 10.0 mi SE 5.8 mph - 0.00 in   Overcast
8:51 PM 59.0 °F 55.9 °F 90% 29.76 in 10.0 mi SSE 3.5 mph - 0.00 in   Overcast
9:51 PM 59.0 °F 55.9 °F 90% 29.75 in 10.0 mi NE 4.6 mph - 0.00 in   Overcast
10:51 PM 59.0 °F 57.0 °F 93% 29.76 in 10.0 mi East 4.6 mph - N/A   Overcast
11:51 PM 59.0 °F 57.0 °F 93% 29.75 in 6.0 mi NE 8.1 mph - N/A   Overcast